This is the latest recevied weather packets stored in our database for station/object KJ5JYX. If no packets are shown the sender has not sent any weather packets the latest 10 day(s).
| Time | Temp. | Humidity | Pressure | Rain* | Wind** | Luminosity | Snow |
|---|---|---|---|---|---|---|---|
| 1777510587 | 17.78° C | 88% | 1014.4 hPa | 0 mm | - | 1 W/m² | - |
| 1777510283 | 17.78° C | 88% | 1014.3 hPa | 0 mm | - | 2 W/m² | - |
| 1777509980 | 17.78° C | 88% | 1014.3 hPa | 0 mm | - | 3 W/m² | - |
| 1777509676 | 17.78° C | 88% | 1014.2 hPa | 0 mm | - | 4 W/m² | - |
| 1777509373 | 17.78° C | 87% | 1014.6 hPa | 0 mm | - | 4 W/m² | - |
| 1777509070 | 17.78° C | 87% | 1014.3 hPa | 0 mm | - | 6 W/m² | - |
| 1777508767 | 17.78° C | 87% | 1014.3 hPa | 0 mm | - | 10 W/m² | - |
| 1777508464 | 17.78° C | 87% | 1014.1 hPa | 0 mm | - | 12 W/m² | - |
| 1777508161 | 17.78° C | 87% | 1013.8 hPa | 0 mm | - | 12 W/m² | - |
| 1777507857 | 18.33° C | 87% | 1013.7 hPa | 0 mm | - | 10 W/m² | - |
| 1777507555 | 18.33° C | 87% | 1013.9 hPa | 0 mm | - | 9 W/m² | - |
| 1777507251 | 18.89° C | 85% | 1014.4 hPa | 0 mm | - | 6 W/m² | - |
| 1777506949 | 18.89° C | 85% | 1014.1 hPa | 0 mm | - | 6 W/m² | - |
| 1777506646 | 18.89° C | 84% | 1013.5 hPa | 0 mm | - | 13 W/m² | - |
| 1777506342 | 18.89° C | 85% | 1013.2 hPa | 0 mm | - | 28 W/m² | - |
| 1777506038 | 18.89° C | 85% | 1013.3 hPa | 0 mm | - | 24 W/m² | - |
| 1777505733 | 18.89° C | 85% | 1013.5 hPa | 0 mm | - | 21 W/m² | - |
| 1777505432 | 18.89° C | 85% | 1013 hPa | 0 mm | - | 38 W/m² | - |
| 1777505128 | 19.44° C | 85% | 1012.8 hPa | 0 mm | - | 43 W/m² | - |
| 1777504825 | 19.44° C | 85% | 1012.7 hPa | 0 mm | - | 77 W/m² | - |
| 1777504522 | 19.44° C | 85% | 1013.1 hPa | 0 mm | - | 67 W/m² | - |
| 1777504217 | 19.44° C | 84% | 1013.3 hPa | 0 mm | - | 50 W/m² | - |
| 1777503913 | 19.44° C | 85% | 1013.6 hPa | 0 mm | - | 67 W/m² | - |
| 1777503609 | 19.44° C | 85% | 1013.4 hPa | 0 mm | - | 73 W/m² | - |
| 1777503307 | 19.44° C | 84% | 1013.3 hPa | 0 mm | - | 73 W/m² | - |
* Rain latest hour (hover to see other rain measurements)
** Current wind speed in m/s (hover to see current wind gust speed)